Tucson, AZ

10:41 PM MST on May 22, 2018 (GMT -0700)
Tucson International

Weather History for KTUS - January, 2013

Change the Weather History Date:

Tuesday, January 1, 2013

  Actual Average Record
Temperature  
Mean Temperature 42 °F 52 °F  
Max Temperature 53 °F 64 °F 80 °F (2012)
Min Temperature 30 °F 39 °F 21 °F (2011)
Degree Days  
Heating Degree Days 23 13  
Month to date heating degree days 23 13  
Since 1 July heating degree days 444 624  
Cooling Degree Days 0 0  
Month to date cooling degree days 0 0  
Year to date cooling degree days 0 0  
Moisture  
Dew Point 27 °F    
Average Humidity 60    
Maximum Humidity 92    
Minimum Humidity 28    
Precipitation  
Precipitation 0.00 in 0.03 in 0.42 in (1951)
Month to date precipitation 0.00 0.03  
Year to date precipitation 0.00 0.03  
Snow  
Snow 0.00 in - - ()
Month to date snowfall 0.0  
Snow Depth 0.00 in    
Sea Level Pressure  
Sea Level Pressure 30.17 in    
Wind  
Wind Speed 4 mph (SSE)    
Max Wind Speed 12 mph    
Max Gust Speed 16 mph    
Visibility 10 miles    
Events      
T = Trace of Precipitation, MM = Missing Value Source: NWS Daily Summary

Daily Weather History Graph

Daily Weather History Graph

Search for Another Location

Airport or City:

Astronomy

Jan. 01, 2013 Rise Set
Actual Time 7:24 AM MST 5:30 PM MST
Civil Twilight 6:57 AM MST 5:57 PM MST
Nautical Twilight 6:27 AM MST 6:27 PM MST
Astronomical Twilight 5:57 AM MST 6:57 PM MST
Moon 9:48 PM MST (1/1) 9:53 AM MST (1/1)
Length of Visible Light 10h 59m
Length of Day
10h 05m
Waning Gibbous, 83% of the Moon is Illuminated
Jan 1
Waning Gibbous
Jan 4
Last Quarter
Jan 11
New
Jan 18
First Quarter
Jan 26
Full

Hourly Weather History & Observations

Time (MST) Temp. Windchill Dew Point Humidity Pressure Visibility Wind Dir Wind Speed Gust Speed Precip Events Conditions
12:53 AM 33.1 °F 30.0 °F 28.9 °F 85% 30.21 in 10.0 mi SE 3.5 mph - N/A   Clear
1:53 AM 32.0 °F 26.4 °F 28.9 °F 88% 30.22 in 10.0 mi SSE 5.8 mph - N/A   Clear
2:53 AM 32.0 °F 27.5 °F 28.9 °F 88% 30.23 in 10.0 mi SE 4.6 mph - N/A   Partly Cloudy
3:53 AM 32.0 °F - 28.0 °F 85% 30.22 in 10.0 mi Calm Calm - N/A   Clear
4:53 AM 30.9 °F 24.3 °F 28.0 °F 89% 30.21 in 10.0 mi SE 6.9 mph - N/A   Clear
5:53 AM 30.9 °F 23.5 °F 27.0 °F 85% 30.22 in 10.0 mi SSE 8.1 mph - N/A   Clear
6:53 AM 30.0 °F 25.2 °F 27.0 °F 88% 30.23 in 10.0 mi SE 4.6 mph - N/A   Clear
7:53 AM 32.0 °F 25.6 °F 27.0 °F 82% 30.23 in 10.0 mi SE 6.9 mph - N/A   Clear
8:53 AM 34.0 °F 31.0 °F 28.0 °F 79% 30.24 in 10.0 mi SSE 3.5 mph - N/A   Clear
9:53 AM 37.9 °F - 28.9 °F 70% 30.24 in 10.0 mi Calm Calm - N/A   Clear
10:53 AM 43.0 °F - 30.0 °F 60% 30.25 in 10.0 mi Calm Calm - N/A   Clear
11:53 AM 48.9 °F - 26.1 °F 41% 30.18 in 10.0 mi Variable 6.9 mph - N/A   Clear
12:53 PM 48.9 °F - 24.1 °F 38% 30.14 in 10.0 mi Variable 4.6 mph - N/A   Clear
1:53 PM 50.0 °F - 23.0 °F 35% 30.11 in 10.0 mi Calm Calm - N/A   Clear
2:53 PM 52.0 °F - 23.0 °F 32% 30.10 in 10.0 mi Calm Calm - N/A   Clear
3:53 PM 53.1 °F - 21.9 °F 30% 30.10 in 10.0 mi North 4.6 mph - N/A   Clear
4:53 PM 51.1 °F - 21.0 °F 31% 30.09 in 10.0 mi North 3.5 mph - N/A   Clear
5:53 PM 48.0 °F - 27.0 °F 44% 30.09 in 10.0 mi NNW 4.6 mph - N/A   Clear
6:53 PM 46.0 °F 44.8 °F 28.0 °F 50% 30.12 in 10.0 mi NNW 3.5 mph - N/A   Clear
7:53 PM 42.1 °F 40.2 °F 28.9 °F 60% 30.12 in 10.0 mi West 3.5 mph - N/A   Clear
8:53 PM 39.9 °F 36.7 °F 30.0 °F 68% 30.14 in 10.0 mi South 4.6 mph - N/A   Clear
9:53 PM 39.0 °F 35.7 °F 28.0 °F 65% 30.13 in 10.0 mi West 4.6 mph - N/A   Clear
10:53 PM 37.9 °F - 28.9 °F 70% 30.13 in 10.0 mi Calm Calm - N/A   Clear
11:53 PM 39.0 °F - 28.0 °F 65% 30.11 in 10.0 mi Calm Calm - N/A   Clear